User: anonymous   Login
Location: Cicognara
(44.9500°N, 10.4667°E)
Time: 23:42:51
(UTC+00:00)
Language:

Meteor 1-11 - Orbit

View from above orbital plane
View from above orbital plane
View from above satellite
View from above satellite

Ground track
Ground track

The orbit data is extracted from the following two-line orbital elements,

1 05917U 72022A   21271.40112768 -.00000024  00000-0 -21044-4 0  9990
2 05917  81.2219 162.9394 0030842 147.4745 212.8334 14.08708394541849
Epoch (UTC): 28 September 2021 09:37:37
Eccentricity: 0.0030842
inclination: 81.2219°
perigee height: 841 km
apogee height: 886 km
right ascension of ascending node: 162.9394°
argument of perigee: 147.4745°
revolutions per day: 14.08708394
mean anomaly at epoch: 212.8334°
orbit number at epoch: 54184

The dashed part of the orbit path shows where the satellite is in the earth's shadow,  

DLR